Location: Gilevgi
(36.8751°N, 30.0581°E)
Time: 03:13:38
(UTC+00:00)

Cosmos 1867 - Pass Details

Date: 11 December 2025
Orbit: 777 x 797 km, 65.0° (Epoch: 13 January)

Event Time Altitude Azimuth Distance (km) Brightness Sun altitude
Rises 15:29:48 0° 335° (NNW) 3,305 6.8 -9.2°
Reaches altitude 10° 15:32:19 10° 340° (NNW) 2,371 6.0 -9.7°
Maximum altitude 15:37:37 50° 56° (NE) 1,006 3.7 -10.7°
Drops below altitude 10° 15:42:52 10° 131° (SE) 2,352 5.7 -11.6°
Sets 15:45:20 0° 137° (SE) 3,275 6.5 -12.1°
